Location: Catstown
(52.4386°N, 7.2633°W)
Time: 12:07:39
(UTC+00:00)

Cosmos 1634 Rocket - Pass Details

Date: 18 September 2020
Orbit: 961 x 991 km, 82.9° (Epoch: 21 October)

Event Time Altitude Azimuth Distance (km) Brightness Sun altitude
Exits shadow 21:19:02 28° 187° (S) 1,712 5.0 -23.8°
Maximum altitude 21:22:30 88° 98° (E) 972 3.9 -24.2°
Drops below altitude 10° 21:28:44 10° 11° (N) 2,720 6.7 -25.0°
Sets 21:31:15 0° 11° (N) 3,674 7.4 -25.3°
